Regional Weather Roundup
Issued by NWS Newport/Morehead, NC

Current Version | Previous Version | Graphics & Text | Print | Product List | Glossary On
Versions: 1 2 3 4 5 6 7 8 9 10 11 12 13 14 15 16 17 18 19 20 21 22 23 24 25 26 27 28 29 30 31 32 33 34 35 36 37 38 39 40 41 42 43 44 45 46 47 48 49 50
000 ASUS42 KMHX 261825 RWRMHX WEATHER ROUNDUP FOR EASTERN NORTH CAROLINA NATIONAL WEATHER SERVICE NEWPORT/MOREHEAD CITY NC 200 PM EDT WED APR 26 2017 NOTE: "FAIR" INDICATES FEW OR NO CLOUDS BELOW 12,000 FEET WITH NO SIGNIFICANT WEATHER AND/OR OBSTRUCTIONS TO VISIBILITY NCZ015>017-031-032-045>047-102-103-261900- NORTH COAST CITY SKY/WX TMP DP RH WIND PRES REMARKS EDENTON CLOUDY 72 60 64 CALM 29.82F ELIZABETH CITY CLOUDY 70 61 73 SW8 29.81S KITTY HAWK CLOUDY 66 58 75 W8 29.81S MANTEO CLOUDY 64 59 84 W6 29.82F $$ NCZ045>047-081-094-103-104-261900- CENTRAL COAST CITY SKY/WX TMP DP RH WIND PRES REMARKS FRISCO SUNNY 73 59 61 W8 29.83F $$ NCZ095-097-098-100-101-261900- SOUTHERN COAST CITY SKY/WX TMP DP RH WIND PRES REMARKS BEAUFORT PTSUNNY 72 65 78 SW15 29.83F CEDAR ISLAND NOT AVBL JACKSONVILLE PTSUNNY 79 64 60 W8 29.82F PINEY ISLAND CLEAR N/A N/A N/A W10 29.82F WILMINGTON MOSUNNY 78 61 55 W10G17 29.83F $$ NCZ011>013-027>030-043-044-078>080-089-090>093-098-261900- COASTAL PLAIN CITY SKY/WX TMP DP RH WIND PRES REMARKS AHOSKIE N/A 71 59 66 CALM 29.80F CLINTON SUNNY 78 63 59 W8 29.82F ELIZABETHTOWN SUNNY 78 62 57 S8 29.82F GOLDSBORO MOSUNNY 76 64 66 SW8 29.80F GREENVILLE CLOUDY 73 63 68 W5 29.84F HAVELOCK PTSUNNY 77 61 57 W16 29.83F KENANSVILLE PTSUNNY 77 63 61 W7 29.82F KINSTON PTSUNNY 77 63 61 SW9 29.83F NEW BERN PTSUNNY 77 63 61 VRB6 29.83F RICHLANDS PTSUNNY 79 64 60 SW9 29.83F ROCKY MOUNT CLOUDY 75 63 66 W10 29.80F WASHINGTON PTSUNNY 72 61 68 SW7 29.81F WHITEVILLE SUNNY 79 62 55 SW6 29.82F $$ AMZ130-135-150-152-154-156-158-170-250-252-270-ANZ085-086-088-633-658-670-261900- MARINE OBSERVATIONS STATION/POSITION TIME TEMP WIND PRES WAVE SWELL AIR SEA DIR/SP/G HT/PER HT/PER (UTC) (F) (DEG/KT/KT) (MB) (FT/S) (FT/S) CHESAPEAKE LIGHT NOT AVBL 64 E VA BEACH 1750 57 56 270/ 4/ 4 1009.9 6/ 9 7/ 9 DUCK 1800 65 60 230/ 8/ 10 1008.9 2 E DUCK 1800 60 N/A 4/ 9 2/11 OREGON INLET 1800 66 65 280/ 8/ 12 1009.5 13E OREGON INLT 1748 62 N/A 5/ 9 5/ 9 HATTERAS CG 1800 69 68 250/ 9/ 12 1010.0 DIAMOND BUOY 1750 68 76 260/ 10/ 14 1010.1 6/10 5/10 CAPE LOOKOUT 1800 69 220/ 10/ 15 1010.2 BEAUFORT LAB 1800 70 66 210/ 11/ 15 1009.5 30 SE NEW RVR IN 1808 68 230/ 8/ 10 1011.3 30 SE NEW RVR IN 1743 72 N/A 4/10 2/11 27 SE WRIGHTSVLE 1808 70 72 190/ 6/ 8 1010.3 5 SE WRIGHTSVLE 1808 71 71 160/ 8/ 10 1010.4 225 S CAPE HAT 1750 74 75 240/ 16/ 19 1012.9 7/ 8 3/ 8 41 SE CHARLESTON 1800 72 73 240/ 12/ 14 1011.5 $$

USA.gov is the U.S. government's official web portal to all federal, state and local government web resources and services.